Miscellaneous Local Product
Issued by NWS North Platte, NE

Home | Current Version | Previous Version | Text Only | Print | Product List | Glossary On
Versions: 1 2 3 4 5 6 7 8 9 10 11 12 13 14 15 16 17 18 19 20 21 22 23 24 25 26 27 28 29 30 31 32 33 34 35 36 37 38 39 40 41 42 43 44 45 46 47 48 49 50
000
AXUS43 KLBF 281210
MISLBF


WESTERN AND NORTH CENTRAL NEBRASKA HOURLY WEATHER ROUNDUP
NATIONAL WEATHER SERVICE NORTH PLATTE NE
700 AM CDT WED JUN 28 2017

NOTE: "FAIR" INDICATES FEW OR NO CLOUDS BELOW 12,000 FEET WITH NO
SIGNIFICANT WEATHER AND/OR OBSTRUCTIONS TO VISIBILITY.

NOTE: STATIONS NOT REPORTING VARIABLES SUCH AS SKY/WEATHER OR
PRESSURE ARE PROVIDED BY RAWS AND APRS NETWORKS AND ARE NOT UNDER
NATIONAL WEATHER SERVICE QUALITY CONTROL.

...OBSERVATIONS IN AND NEAR THE EASTERN PANHANDLE OF NEBRASKA...

CITY           SKY/WX    TMP DP  RH WIND       PRES   REMARKS
PINE RIDGE     CLEAR     52  50  93 CALM      29.82R
GORDON         FAIR      55  50  85 NW7       29.82R
CHADRON        CLEAR     57  50  77 W3        29.83R
ALLIANCE       CLEAR     51  48  89 W3        29.84S
SIDNEY         CLEAR     53  46  77 W10       29.90R
CRESCENT LAKE    N/A     56  50  80 NW6         N/A
$$

...OBSERVATIONS IN NORTHERN NEBRASKA AND FAR SOUTHERN SOUTH DAKOTA...

CITY           SKY/WX    TMP DP  RH WIND       PRES   REMARKS
WINNER         MOCLDY    66  57  72 W9        29.68R
VALENTINE      CLEAR     60  52  74 W9        29.73R
THEDFORD       CLEAR     60  55  82 W9        29.77R
AINSWORTH      CLEAR     62  56  82 W13       29.71S
O`NEILL        CLOUDY    61  58  92 S8        29.70R
ORD            CLOUDY    62  59  90 NW3       29.72R
BROKEN BOW     CLEAR     62  58  86 NW8       29.74R
VALENTINE NWR    N/A     61  54  78 W3G16       N/A
HALSEY           N/A     58  53  83 W3          N/A
BUTTE            N/A     62  56  82 W5          N/A
CHAMBERS         N/A     64  60  88 W3          N/A
EWING            N/A     62  60  94 CALM        N/A
$$

...OBSERVATIONS IN SOUTHWEST NEBRASKA AND FAR NORTHEAST COLORADO...

CITY           SKY/WX    TMP DP  RH WIND       PRES   REMARKS
WRAY           FAIR      59  50  72 NW15      29.85R
IMPERIAL       CLEAR     58  52  80 NW13      29.81R
OGALLALA       CLEAR     59  53  83 W6        29.82S
NORTH PLATTE   CLEAR     59  57  93 W3        29.77R
MCCOOK         CLEAR     64  60  87 SW8       29.76S
LEXINGTON      CLEAR     62  60  94 NW3       29.75R FOG
STAPLETON        N/A     59  55  85 CALM        N/A
GOTHENBURG       N/A     61  57  88 CALM        N/A
CALLAWAY         N/A     58  56  93 SW3         N/A
$$

...OBSERVATIONS IN CENTRAL LINCOLN COUNTY AREA...

CITY           SKY/WX    TMP DP  RH WIND       PRES   REMARKS
N.P. AIRPORT   CLEAR     59  57  93 W3        29.77R
N.P. DOWNTOWN    N/A     61  58  88 CALM        N/A
N.P. SOUTHEAST   N/A     60  56  88 CALM        N/A
N.P. HILLCREST   N/A     60  55  85 W3          N/A
$$

...SOME OBSERVATIONS FROM AROUND THE REGION...

CITY           SKY/WX    TMP DP  RH WIND       PRES   REMARKS
DENVER         PTCLDY    59  40  49 S9        29.98R
LIMON          CLEAR     52  43  71 VRB3      29.98R
ASPEN          CLOUDY    50  32  50 SW10      30.10F
LARAMIE        CLOUDY    40  35  83 S7        30.06S
CASPER         CLEAR     48  40  73 SW9       29.92S
CHEYENNE       CLOUDY    52  37  56 NW10      30.00S
SCOTTSBLUFF    CLEAR     53  47  79 NW7       29.88R
GRAND ISLAND   CLOUDY    66  66 100 S6        29.71F
OMAHA          CLOUDY    68  62  81 S18G24    29.69F
SIOUX FALLS    CLOUDY    67  63  87 SW10      29.59S
PIERRE         CLOUDY    65  58  78 W10       29.63R
RAPID CITY     CLEAR     58  50  75 NW10      29.79R
BISMARCK       CLOUDY    63  60  90 NW12      29.61S
KANSAS CITY    CLOUDY    73  66  78 S18G24    29.87F
HILL CITY      CLEAR     70  64  81 S12       29.74S
WICHITA        CLOUDY    72  68  87 S12       29.88S
DODGE CITY     CLEAR     70  65  84 SE15      29.80S
OKLAHOMA CITY  PTCLDY    71  69  93 S12       29.92S
DALLAS         MOCLDY    74  71  91 S5        29.94R
$$




USA.gov is the U.S. government's official web portal to all federal, state and local government web resources and services.